Theta_e
321 321 324 324 320 321 325 325 328 325 326 327 328 327 325 326 328 334 336 336 330 328 322 326 335 335 334 335 336 335 331 326 322 319 326 327 328 328 326 325 326 323 320 317 315 326 326 327 328
321 322 325 324 319 320 322 322 323 321 324 328 328 328 327 327 333 336 336 331 332 329 324 327 336 338 335 334 335 329 323 322 320 321 328 327 327 328 327 327 325 322 320 316 314 314 316 315 318
322 324 325 321 322 319 320 323 321 322 325 327 327 328 328 329 336 336 336 331 332 329 330 327 331 333 336 335 333 329 324 322 318 315 327 329 328 329 328 328 327 327 319 316 313 314 313 311 310
325 325 324 321 323 323 322 318 321 321 324 326 327 326 330 329 333 334 329 332 332 329 329 327 330 333 333 332 331 328 324 321 315 314 326 328 329 331 331 328 326 327 321 312 311 311 311 312 315
326 326 322 323 323 323 321 322 322 321 322 325 326 325 329 331 331 332 332 336 335 333 334 327 324 328 333 332 330 328 325 322 318 316 325 327 329 330 331 329 329 328 316 313 313 313 313 313 314
326 324 324 324 323 323 322 325 322 321 321 323 326 325 328 332 330 334 334 336 336 335 334 327 322 325 329 329 328 326 326 327 323 316 321 324 327 330 330 332 330 325 314 315 315 316 316 316 316
326 323 324 324 324 324 325 323 320 320 322 324 325 324 327 327 325 331 333 335 336 336 333 329 324 323 324 323 326 326 329 327 323 320 315 314 323 328 330 330 319 315 315 316 317 318 318 318 319
328 322 326 323 325 325 325 325 323 322 322 325 325 323 325 326 324 325 331 334 335 336 333 333 329 327 324 324 324 324 325 325 323 317 313 313 319 320 316 316 316 316 317 318 320 320 322 323 324
329 325 328 326 325 325 325 324 324 325 325 326 325 325 325 325 324 324 326 329 332 335 333 333 334 334 331 332 334 333 326 321 319 315 316 314 321 325 319 319 320 321 323 324 326 327 328 328 329
326 326 328 324 323 323 324 323 324 325 325 326 327 326 326 324 324 324 324 325 328 331 331 335 336 335 334 335 336 333 325 328 325 323 323 324 324 325 324 325 327 327 328 328 328 329 330 331 331
327 328 326 325 326 325 323 324 325 324 324 325 326 327 327 326 325 326 324 324 325 326 332 331 338 338 337 336 335 332 332 331 330 331 328 329 328 327 328 329 330 331 330 331 331 331 331 330 330
327 327 327 327 327 326 324 325 324 325 324 325 326 326 327 327 326 327 325 324 325 327 330 333 334 339 339 339 337 335 336 333 332 332 330 331 331 332 331 333 333 332 332 330 330 329 328 328 328
324 325 327 327 327 326 325 324 324 325 325 325 325 326 327 327 327 327 326 323 323 327 330 333 334 337 339 339 338 337 336 335 333 333 333 332 332 332 332 332 331 330 330 329 329 328 327 325 322
322 323 325 325 326 326 325 324 324 325 326 326 326 326 326 327 324 325 325 323 323 329 330 332 333 334 337 339 339 337 336 334 333 333 333 333 332 331 332 331 330 329 328 328 326 324 319 313 313
322 325 324 326 326 326 326 325 323 325 325 325 326 326 326 321 321 323 324 323 326 330 331 332 331 332 335 337 338 337 336 334 333 332 331 331 330 331 331 329 329 326 324 322 316 312 312 312 311
322 323 327 325 325 326 326 328 324 325 325 325 326 326 322 321 321 322 323 323 326 329 331 332 332 332 334 336 338 336 334 334 332 332 330 330 330 330 327 327 320 313 311 311 312 311 309 307 306
320 323 325 326 324 325 326 327 323 325 325 325 325 325 321 322 323 321 322 323 324 324 324 324 325 331 333 336 336 334 333 332 330 329 329 328 327 327 320 310 311 311 310 309 308 306 304 303 303
321 322 321 325 324 325 327 327 322 326 325 325 324 321 321 323 322 322 321 321 322 323 323 323 322 329 334 336 334 332 331 329 327 328 325 316 311 310 311 311 310 308 307 306 305 304 303 301 300
316 318 323 323 323 326 326 327 325 324 324 322 321 320 322 322 321 321 321 324 325 325 326 327 328 332 335 335 333 331 330 329 327 319 311 310 311 311 310 309 307 306 305 304 302 302 301 300 299
317 319 320 319 322 325 326 326 325 323 324 324 324 319 321 321 320 321 325 328 328 329 329 330 332 333 334 334 332 331 328 321 314 310 310 311 310 309 308 309 308 307 304 303 301 299 298 298 296
317 319 319 320 322 324 325 328 326 323 323 325 325 323 322 322 320 322 324 328 330 330 331 331 331 331 331 331 327 323 318 312 310 310 311 310 309 309 310 309 309 307 304 301 299 297 296 296 297
316 316 318 320 322 327 325 332 327 325 321 320 321 319 320 320 320 321 323 325 328 330 331 331 331 331 328 324 322 317 313 311 310 311 310 310 310 311 310 309 308 305 302 300 298 296 295 295 295
315 314 316 319 323 324 325 329 325 323 323 321 315 318 319 320 320 320 321 323 321 322 327 325 324 323 320 316 313 311 310 311 311 310 310 310 310 310 309 308 306 304 301 299 297 296 295 294 293
314 316 317 320 321 326 324 325 324 324 322 322 313 317 319 319 320 320 319 319 319 319 319 318 317 317 317 315 312 310 311 311 310 310 310 309 308 308 307 306 304 301 299 297 296 295 294 293 293
313 315 320 321 323 324 325 324 324 320 321 322 315 317 318 319 319 319 318 318 317 316 316 316 316 315 314 312 311 311 311 310 310 309 309 308 308 308 306 305 302 299 297 295 295 294 292 292 293
314 314 318 320 322 322 326 327 328 321 319 320 318 318 318 318 318 318 318 316 315 314 313 313 312 312 311 311 311 310 310 309 309 309 308 308 308 307 305 303 300 297 295 294 292 292 292 292 292
313 316 316 321 324 327 327 325 320 316 315 316 317 317 317 317 318 318 317 315 314 313 312 312 312 312 311 311 310 310 309 309 309 309 308 307 306 305 303 301 297 295 293 291 291 292 292 292 291
315 316 319 319 327 331 328 322 322 316 317 317 317 316 316 317 318 317 316 315 313 313 313 312 312 312 311 310 310 309 309 308 308 308 307 306 305 304 301 298 295 292 291 291 291 292 291 290 290
315 318 320 320 320 329 330 325 316 316 316 317 317 317 317 317 317 317 316 315 314 313 313 312 311 311 310 309 309 308 308 308 307 307 306 305 304 301 298 294 292 291 291 291 291 291 290 289 289
317 320 319 319 322 323 320 319 315 314 314 317 317 317 317 317 317 316 316 316 315 313 313 312 311 310 309 308 307 307 307 306 306 306 305 304 302 297 294 291 290 290 291 291 291 290 289 288 288
Wind_Speed
16 15 17 9 4 4 3 5 1 6 4 4 6 3 3 5 2 3 9 7 3 6 7 9 11 11 9 9 9 5 5 4 3 4 6 5 4 1 4 3 1 4 7 8 1 7 2 5 5
15 14 10 4 3 2 5 3 6 5 3 9 9 6 2 2 7 13 9 4 1 5 7 8 11 12 8 6 7 3 2 2 2 4 4 4 4 2 2 3 2 4 8 8 5 3 6 9 10
13 10 6 2 2 4 3 1 1 7 13 9 6 10 3 3 9 9 7 9 4 4 8 7 9 10 10 9 5 1 2 2 1 4 9 4 4 3 1 1 7 11 10 9 9 4 4 4 5
8 6 4 1 8 8 5 5 3 2 7 9 7 4 5 7 4 7 9 10 4 3 4 3 5 9 9 8 4 2 2 3 2 5 9 8 5 3 2 1 3 11 12 9 10 8 8 7 6
7 5 1 2 7 7 7 1 2 2 2 3 5 1 4 5 5 7 11 8 4 5 4 3 6 8 9 7 5 2 1 3 4 4 7 6 6 4 5 4 6 11 10 8 8 9 8 8 8
4 2 1 4 7 8 6 6 4 1 4 8 2 2 3 7 4 8 14 10 8 6 5 6 8 8 9 7 5 3 3 1 3 4 5 4 6 3 2 3 6 9 7 8 9 9 9 9 9
4 1 4 5 8 8 5 5 6 2 2 3 6 3 6 6 5 8 13 14 10 10 8 7 8 8 8 5 4 3 3 1 1 2 2 2 5 4 2 3 4 6 8 9 9 9 9 10 10
8 3 5 5 8 11 6 6 4 3 4 6 4 3 4 6 4 4 9 11 14 12 10 7 7 7 5 4 4 2 2 3 2 2 2 2 4 2 1 2 3 5 8 9 10 10 11 12 13
14 2 8 8 9 11 21 4 5 3 5 4 8 14 8 5 4 3 3 5 14 14 12 9 7 7 5 3 3 0 2 2 1 1 4 6 5 2 2 4 6 8 9 9 11 10 12 13 15
8 5 7 5 10 9 19 7 7 4 2 5 12 10 4 10 6 3 5 6 8 10 14 14 11 7 5 5 3 2 2 0 4 4 3 4 2 2 4 5 5 7 9 10 13 14 15 16 18
6 11 5 7 23 25 18 9 6 2 3 8 11 16 8 7 6 7 9 12 10 9 11 17 15 11 9 9 7 6 2 2 4 2 0 1 3 1 3 4 7 10 12 14 14 13 15 16 16
13 18 19 19 29 23 10 13 7 9 9 12 17 18 18 15 14 12 10 12 14 14 12 11 16 18 15 14 9 5 2 2 2 1 3 4 2 1 3 3 5 6 9 12 13 14 15 14 14
12 15 22 28 30 32 26 18 15 14 19 17 21 23 21 21 22 17 14 11 14 11 14 14 14 19 18 14 9 10 7 5 8 6 6 7 5 3 4 4 4 7 10 12 12 12 12 11 13
12 15 24 31 24 25 22 13 19 21 19 19 24 27 25 23 15 16 17 16 12 14 17 18 17 19 19 17 12 14 11 8 8 7 6 5 6 5 3 3 7 8 9 11 11 12 11 12 14
11 13 16 21 27 16 21 18 15 25 19 23 31 30 27 18 15 17 21 21 16 18 20 20 18 16 16 18 16 13 15 11 9 10 7 5 5 5 5 6 7 7 8 7 8 11 13 15 16
4 6 13 9 10 13 15 21 13 31 27 31 33 31 17 16 14 17 17 18 19 20 21 19 19 19 17 15 17 14 13 14 12 11 8 7 6 9 7 5 4 4 6 9 12 16 18 19 20
3 10 7 7 8 6 15 21 9 23 21 25 28 28 19 16 13 16 17 18 20 22 20 20 23 22 20 18 20 19 17 15 12 11 9 7 7 5 2 1 4 7 11 13 16 17 18 19 19
11 6 13 9 5 11 16 16 9 21 27 24 25 18 19 19 14 12 10 12 15 16 14 16 22 26 25 24 23 19 18 16 14 11 8 8 6 4 3 6 9 12 14 16 17 17 17 18 19
9 15 14 12 10 12 20 17 17 20 19 16 24 15 25 21 14 7 9 13 14 13 17 19 27 28 27 27 27 23 19 16 12 10 10 8 5 4 7 10 13 16 17 17 18 18 18 19 23
15 15 21 15 16 9 13 21 18 14 19 22 25 20 30 23 17 14 17 17 17 18 20 24 27 27 25 22 20 18 17 15 13 11 9 6 4 7 11 15 17 19 18 17 17 18 20 20 22
17 18 18 16 14 14 7 16 21 11 22 28 28 25 35 30 25 22 21 22 23 22 23 24 24 24 22 18 18 19 19 17 13 10 6 4 5 9 13 16 18 20 19 18 17 18 20 22 21
18 15 14 17 11 11 4 8 20 19 13 12 21 30 36 30 28 28 26 24 25 25 23 24 25 22 16 14 16 17 16 15 12 7 4 2 5 9 13 16 19 20 19 18 17 17 18 20 23
16 11 13 13 15 15 18 7 12 14 17 14 9 32 38 35 36 33 28 25 25 25 25 25 24 23 21 19 17 17 16 12 10 6 3 1 5 9 14 18 20 20 19 18 18 18 18 20 21
3 5 11 9 9 13 15 9 6 13 20 26 10 28 39 38 37 33 29 28 28 27 26 24 23 22 20 18 17 16 13 11 9 6 2 3 8 11 14 17 20 20 18 18 18 19 20 21 22
4 4 4 7 6 11 8 9 16 8 13 20 18 29 37 41 40 37 34 32 30 29 27 25 24 25 23 21 19 16 13 10 8 5 1 4 8 13 16 19 20 19 18 18 19 20 22 24 26
10 14 6 7 7 6 6 6 9 15 13 23 35 42 43 43 41 37 34 33 31 29 28 26 25 25 23 21 19 15 12 9 6 3 2 6 10 14 17 20 20 18 18 19 21 23 25 27 29
7 12 21 5 5 3 5 6 11 6 9 14 25 32 35 42 42 37 33 32 31 29 27 26 25 23 22 20 17 14 10 8 5 3 5 8 12 15 18 19 18 17 19 21 23 26 28 30 31
11 11 11 5 5 7 5 11 8 7 14 16 18 26 31 39 39 35 33 32 30 28 26 24 22 20 20 18 15 12 9 7 5 5 7 10 14 17 18 18 18 18 20 23 26 28 30 31 32
11 8 7 4 9 2 5 5 7 12 15 19 19 29 35 42 40 37 34 31 30 28 26 24 22 21 19 17 14 12 10 7 6 7 9 13 16 17 18 18 18 20 23 25 28 30 31 33 32
16 14 11 8 8 9 3 3 1 10 13 17 23 30 34 39 38 36 34 32 31 29 26 24 22 20 18 16 14 12 10 8 7 8 11 14 16 17 17 17 19 22 25 28 30 31 32 31 33
Wind_Direction
315 330 337 343 36 66 261 264 336 20 28 7 348 338 252 292 289 171 145 245 176 129 142 146 154 149 157 174 199 233 290 307 346 71 126 157 173 218 2 344 42 315 8 8 303 233 262 225 232
310 330 342 319 90 34 272 344 42 313 1 22 10 13 131 75 90 136 147 210 191 124 131 142 145 151 162 174 187 238 286 295 332 133 129 136 140 132 65 47 309 5 4 17 10 284 271 266 265
301 321 298 123 187 192 236 222 83 347 6 42 19 342 54 45 125 156 144 179 195 136 138 122 153 155 166 184 196 212 19 16 340 173 137 135 152 164 157 342 335 3 347 354 16 13 355 341 307
331 332 239 128 256 262 256 264 177 16 1 21 10 31 82 19 184 153 147 164 181 163 128 136 173 169 161 184 195 202 15 22 79 152 156 166 184 185 229 291 294 346 352 355 18 18 7 353 342
309 259 291 255 256 269 270 104 145 96 338 309 333 17 89 71 99 137 134 161 202 168 177 201 200 185 184 192 193 197 251 55 70 146 174 174 176 179 208 228 271 332 349 23 19 17 9 0 354
276 222 148 236 264 277 281 243 114 91 308 294 69 88 95 133 170 156 145 169 233 213 197 216 199 192 195 194 196 188 188 89 72 83 198 203 201 199 254 249 304 327 348 359 359 0 357 352 345
193 65 225 245 267 291 280 147 136 96 342 22 354 71 138 169 113 144 159 167 210 233 228 204 196 188 194 186 180 166 199 207 137 60 48 203 203 211 253 288 319 336 345 343 343 345 343 342 339
248 151 244 230 255 278 279 214 147 156 229 312 316 137 206 182 122 118 180 178 205 231 234 205 196 191 182 181 159 170 257 271 284 41 59 98 148 147 129 356 5 336 332 337 338 338 341 341 340
253 232 230 223 237 256 287 276 204 217 198 287 284 289 265 199 163 151 159 194 201 220 235 226 209 185 180 176 194 250 286 258 256 132 91 112 113 104 53 16 353 347 345 349 347 346 349 350 351
202 210 235 217 229 245 272 269 252 187 256 293 295 299 273 190 164 198 253 249 236 227 227 227 228 213 205 215 211 285 207 261 156 120 125 115 100 20 343 346 343 349 350 352 353 349 353 351 347
240 235 251 244 255 269 277 279 234 303 274 265 278 289 320 227 214 250 248 256 255 253 225 217 218 221 225 225 235 229 180 151 184 184 37 62 24 263 321 345 348 352 351 351 345 343 338 330 327
254 250 247 257 269 271 273 287 264 237 250 287 295 287 294 282 272 264 260 249 241 226 232 226 209 209 217 223 219 199 229 225 179 291 248 241 217 279 325 333 338 329 321 324 322 318 318 321 322
251 246 250 242 243 258 265 259 255 262 266 271 279 273 274 275 272 260 251 238 239 229 229 228 217 209 211 219 208 190 209 211 200 195 209 222 221 224 244 264 291 303 302 300 296 295 298 299 301
283 273 255 250 249 253 260 253 245 246 254 263 265 264 268 272 252 245 229 228 226 221 226 220 221 214 207 209 205 187 182 187 178 181 193 207 233 241 238 258 278 282 286 279 283 299 306 317 316
278 267 263 252 247 248 262 269 237 249 253 259 260 265 267 253 245 220 220 222 219 209 205 206 211 211 207 203 195 189 193 174 179 185 194 169 191 181 214 241 258 267 268 293 305 310 315 314 310
296 289 251 250 252 243 236 259 245 251 253 252 258 260 234 215 222 227 225 221 206 202 205 213 214 202 200 193 186 175 186 176 184 184 181 189 205 185 192 235 256 291 310 319 318 318 320 318 318
227 261 276 272 239 252 226 252 240 243 244 260 277 235 207 209 223 225 228 230 224 227 223 215 204 194 182 179 173 182 177 168 170 176 189 204 188 198 226 73 355 331 327 325 324 327 329 331 331
239 227 255 256 229 240 257 262 241 237 239 244 248 220 195 193 207 219 223 208 200 209 201 181 172 177 180 176 172 173 175 168 175 191 187 153 142 111 32 1 344 337 336 331 332 337 342 344 339
261 276 270 259 239 224 234 246 245 240 240 238 232 214 171 177 181 193 166 164 178 182 171 161 161 170 180 178 176 178 181 185 188 160 135 125 99 48 10 358 353 350 346 345 344 345 347 350 345
244 255 264 281 277 237 243 241 241 225 238 232 232 189 167 166 165 155 156 163 162 157 157 159 165 175 183 186 184 189 183 164 147 136 129 105 63 25 13 6 1 357 352 346 345 347 349 351 355
229 230 250 256 292 287 275 262 248 235 223 226 233 212 181 179 162 157 167 169 162 159 160 159 161 170 173 174 171 162 155 147 144 138 127 97 40 18 10 6 0 354 349 345 345 345 346 345 345
241 239 257 257 271 260 216 269 237 230 218 218 223 183 179 168 161 159 168 169 167 163 164 161 165 168 170 170 160 153 151 148 143 140 125 76 22 2 0 357 355 351 345 340 341 340 340 337 337
255 244 262 258 258 270 265 265 252 209 224 224 186 173 172 170 167 167 175 172 164 160 164 163 162 159 156 156 156 152 150 150 146 150 150 35 4 358 354 351 348 342 338 334 331 330 332 335 333
241 337 306 255 260 255 231 252 238 223 216 218 152 169 166 166 165 166 171 167 160 162 161 160 160 155 158 160 160 163 163 159 164 167 191 348 352 350 346 344 341 337 333 330 330 330 329 328 326
131 207 236 222 219 242 205 207 251 241 212 187 168 165 163 164 164 167 171 173 166 166 165 165 167 162 168 172 171 173 175 174 173 165 179 339 337 336 339 340 337 334 331 328 326 325 326 326 324
188 190 216 210 211 235 173 229 224 248 199 169 160 161 161 162 168 171 174 174 169 167 167 167 171 170 172 177 179 181 182 181 180 194 291 320 328 333 336 334 331 329 328 326 326 326 325 324 322
185 201 218 326 285 176 181 223 326 275 125 134 145 153 157 162 169 172 175 177 173 171 172 174 176 176 177 184 188 188 187 192 208 257 304 322 329 332 331 329 330 330 329 327 326 326 324 322 321
219 166 188 181 253 189 204 190 199 193 150 147 150 156 158 164 171 175 177 178 178 177 178 180 183 185 186 192 194 195 198 210 239 277 303 320 329 330 329 330 331 331 329 328 326 325 323 321 322
183 218 200 179 240 267 170 230 203 175 160 158 162 163 165 170 176 178 177 180 181 184 184 185 188 193 195 199 201 204 212 231 258 286 313 326 329 329 331 331 331 331 330 329 326 325 325 325 321
191 209 176 195 203 226 175 306 83 156 157 160 167 169 169 173 176 178 179 182 184 188 189 192 193 197 203 205 207 213 226 245 271 299 319 329 331 332 330 330 332 331 329 328 327 327 326 324 322